CEB2628 RPVD-RPLL

Flight info

Callsign CEB2628
Flight time 0h 57m
Altitude 32000
Route NANAS6R NANAS B472 IBAGO IBAGO3R
Aircraft A320/M-SDE3FGHIRWY/LB1

Departure

Time 2026-04-23 03:15
Airport Sibulan Airport (RPVD)

Arrival

Time 2026-04-23 04:12
Airport Ninoy Aquino International Airport (RPLL)
Time Latitude Longitude Altitude Speed Heading
2026-04-23 03:00 9.33321 123.29552 60 ft 0 kts 144°
2026-04-23 03:11 9.33320 123.29553 60 ft 0 kts 141°
2026-04-23 03:11 9.33321 123.29558 60 ft 1 kts 52°
2026-04-23 03:11 9.33340 123.29557 60 ft 3 kts 351°
2026-04-23 03:11 9.33342 123.29556 60 ft 3 kts 351°
2026-04-23 03:12 9.33368 123.29542 60 ft 5 kts 321°
2026-04-23 03:12 9.33398 123.29517 60 ft 6 kts 316°
2026-04-23 03:12 9.33436 123.29482 60 ft 8 kts 324°
2026-04-23 03:12 9.33460 123.29428 60 ft 9 kts 274°
2026-04-23 03:13 9.33453 123.29389 60 ft 5 kts 257°
2026-04-23 03:13 9.33464 123.29400 60 ft 5 kts 96°
2026-04-23 03:13 9.33461 123.29425 60 ft 0 kts 94°
2026-04-23 03:14 9.33459 123.29454 60 ft 21 kts 94°
2026-04-23 03:14 9.33437 123.29870 60 ft 93 kts 94°
2026-04-23 03:15 9.33389 123.30746 80 ft 147 kts 91°
2026-04-23 03:15 9.33337 123.31754 647 ft 143 kts 91°
2026-04-23 03:15 9.33281 123.32750 1205 ft 146 kts 91°
2026-04-23 03:15 9.33223 123.33772 1792 ft 147 kts 90°
2026-04-23 03:16 9.33398 123.34798 2160 ft 157 kts 55°
2026-04-23 03:16 9.34395 123.35326 2462 ft 177 kts
2026-04-23 03:16 9.36620 123.33865 3205 ft 213 kts 321°
2026-04-23 03:17 9.37809 123.32836 3588 ft 230 kts 323°
2026-04-23 03:17 9.39114 123.31747 3911 ft 254 kts 323°
2026-04-23 03:17 9.40537 123.30568 4390 ft 272 kts 322°
2026-04-23 03:17 9.42012 123.29345 5088 ft 279 kts 322°
2026-04-23 03:18 9.43523 123.28088 5927 ft 282 kts 322°
2026-04-23 03:18 9.45046 123.26823 6761 ft 285 kts 321°
2026-04-23 03:18 9.46587 123.25541 7565 ft 289 kts 321°
2026-04-23 03:18 9.48147 123.24243 8355 ft 293 kts 321°
2026-04-23 03:19 9.49742 123.22917 9134 ft 297 kts 321°
2026-04-23 03:19 9.51334 123.21592 9911 ft 301 kts 321°
2026-04-23 03:19 9.52978 123.20224 10600 ft 308 kts 321°
2026-04-23 03:19 9.54687 123.18801 11000 ft 325 kts 321°
2026-04-23 03:20 9.56486 123.17305 11501 ft 337 kts 320°
2026-04-23 03:20 9.58294 123.15801 12225 ft 340 kts 320°
2026-04-23 03:20 9.60113 123.14288 12959 ft 342 kts 320°
2026-04-23 03:20 9.61970 123.12741 13638 ft 346 kts 320°
2026-04-23 03:21 9.63851 123.11175 14298 ft 350 kts 320°
2026-04-23 03:21 9.65752 123.09592 14937 ft 354 kts 320°
2026-04-23 03:21 9.67656 123.08006 15559 ft 357 kts 320°
2026-04-23 03:21 9.69593 123.06393 16159 ft 360 kts 320°
2026-04-23 03:22 9.71524 123.04784 16727 ft 364 kts 320°
2026-04-23 03:22 9.73502 123.03135 17290 ft 367 kts 320°
2026-04-23 03:22 9.75493 123.01475 17860 ft 370 kts 321°
2026-04-23 03:22 9.77538 122.99818 18427 ft 373 kts 324°
2026-04-23 03:23 9.79697 122.98356 18997 ft 374 kts 330°
2026-04-23 03:23 9.82001 122.97105 19567 ft 375 kts 335°
2026-04-23 03:23 9.84350 122.95986 20120 ft 377 kts 336°
2026-04-23 03:23 9.86744 122.94871 20678 ft 378 kts 336°
2026-04-23 03:24 9.89157 122.93746 21220 ft 380 kts 336°
2026-04-23 03:24 9.91553 122.92627 21741 ft 382 kts 336°
2026-04-23 03:24 9.94004 122.91479 22263 ft 384 kts 336°
2026-04-23 03:24 9.96440 122.90337 22769 ft 387 kts 336°
2026-04-23 03:25 9.98903 122.89179 23253 ft 390 kts 336°
2026-04-23 03:25 10.01369 122.88021 23717 ft 393 kts 336°
2026-04-23 03:25 10.03881 122.86839 24170 ft 396 kts 336°
2026-04-23 03:25 10.06408 122.85648 24614 ft 399 kts 336°
2026-04-23 03:26 10.08929 122.84460 25057 ft 402 kts 336°
2026-04-23 03:26 10.11521 122.83241 25501 ft 405 kts 336°
2026-04-23 03:26 10.14092 122.82036 25920 ft 408 kts 336°
2026-04-23 03:26 10.16707 122.80807 26339 ft 411 kts 336°
2026-04-23 03:27 10.19319 122.79579 26732 ft 414 kts 335°
2026-04-23 03:27 10.21955 122.78340 27119 ft 417 kts 335°
2026-04-23 03:27 10.24580 122.77104 27510 ft 420 kts 335°
2026-04-23 03:27 10.27273 122.75837 27887 ft 423 kts 335°
2026-04-23 03:28 10.29964 122.74565 28250 ft 426 kts 334°
2026-04-23 03:28 10.32640 122.73299 28598 ft 429 kts 334°
2026-04-23 03:28 10.35388 122.72001 28995 ft 431 kts 334°
2026-04-23 03:28 10.38097 122.70721 29468 ft 431 kts 334°
2026-04-23 03:29 10.40826 122.69437 29985 ft 430 kts 334°
2026-04-23 03:29 10.43553 122.68152 30459 ft 429 kts 334°
2026-04-23 03:29 10.46295 122.66859 30865 ft 431 kts 334°
2026-04-23 03:29 10.49011 122.65578 31241 ft 433 kts 334°
2026-04-23 03:30 10.51787 122.64268 31618 ft 435 kts 334°
2026-04-23 03:30 10.54533 122.62969 31859 ft 437 kts 334°
2026-04-23 03:30 10.60091 122.60339 31880 ft 437 kts 334°
2026-04-23 03:31 10.65618 122.57723 31885 ft 437 kts 334°
2026-04-23 03:31 10.71139 122.55109 31887 ft 436 kts 334°
2026-04-23 03:32 10.76663 122.52492 31888 ft 436 kts 334°
2026-04-23 03:32 10.82141 122.49898 31889 ft 435 kts 334°
2026-04-23 03:33 10.87735 122.47380 31895 ft 436 kts 336°
2026-04-23 03:33 10.93310 122.45005 31905 ft 435 kts 336°
2026-04-23 03:34 10.98912 122.42601 31918 ft 435 kts 336°
2026-04-23 03:34 11.04530 122.40175 31931 ft 434 kts 336°
2026-04-23 03:35 11.10087 122.37771 31940 ft 434 kts 336°
2026-04-23 03:35 11.15726 122.35342 31945 ft 434 kts 336°
2026-04-23 03:36 11.21306 122.32922 31948 ft 434 kts 335°
2026-04-23 03:36 11.26906 122.30482 31952 ft 444 kts 335°
2026-04-23 03:37 11.29822 122.29215 31954 ft 455 kts 335°
2026-04-23 03:37 11.32761 122.27938 31953 ft 461 kts 335°
2026-04-23 03:37 11.38327 122.25523 31957 ft 463 kts 335°
2026-04-23 03:38 11.44305 122.22931 31955 ft 463 kts 335°
2026-04-23 03:38 11.50250 122.20352 31947 ft 463 kts 335°
2026-04-23 03:39 11.56175 122.17782 31937 ft 463 kts 335°
2026-04-23 03:39 11.62163 122.15183 31926 ft 464 kts 335°
2026-04-23 03:40 11.68117 122.12595 31919 ft 463 kts 335°
2026-04-23 03:40 11.74066 122.10009 31913 ft 463 kts 335°
2026-04-23 03:41 11.79986 122.07435 31906 ft 462 kts 335°
2026-04-23 03:41 11.85920 122.04853 31901 ft 463 kts 335°
2026-04-23 03:42 11.91864 122.02265 31903 ft 463 kts 335°
2026-04-23 03:42 11.97841 121.99663 31901 ft 463 kts 335°
2026-04-23 03:43 12.03765 121.97083 31895 ft 464 kts 335°
2026-04-23 03:43 12.09704 121.94494 31889 ft 464 kts 335°
2026-04-23 03:44 12.15679 121.91898 31886 ft 463 kts 335°
2026-04-23 03:44 12.21619 121.89314 31884 ft 462 kts 335°
2026-04-23 03:45 12.27563 121.86719 31884 ft 462 kts 335°
2026-04-23 03:45 12.33505 121.84122 31885 ft 462 kts 335°
2026-04-23 03:46 12.39447 121.81526 31884 ft 462 kts 335°
2026-04-23 03:46 12.45382 121.78934 31884 ft 462 kts 335°
2026-04-23 03:47 12.51379 121.76311 31884 ft 462 kts 335°
2026-04-23 03:47 12.57327 121.73706 31705 ft 463 kts 335°
2026-04-23 03:48 12.60296 121.72404 31453 ft 463 kts 335°
2026-04-23 03:48 12.63269 121.71101 31199 ft 464 kts 335°
2026-04-23 03:48 12.66218 121.69807 30948 ft 465 kts 336°
2026-04-23 03:48 12.69203 121.68497 30694 ft 466 kts 336°
2026-04-23 03:49 12.72223 121.67172 30438 ft 467 kts 336°
2026-04-23 03:49 12.75226 121.65853 30183 ft 467 kts 336°
2026-04-23 03:49 12.78196 121.64550 29925 ft 467 kts 336°
2026-04-23 03:49 12.81191 121.63235 29439 ft 463 kts 336°
2026-04-23 03:50 12.84182 121.61920 29145 ft 468 kts 336°
2026-04-23 03:50 12.87168 121.60609 28888 ft 471 kts 336°
2026-04-23 03:50 12.90211 121.59272 28630 ft 472 kts 336°
2026-04-23 03:50 12.93230 121.57945 28380 ft 473 kts 336°
2026-04-23 03:51 12.96282 121.56604 28107 ft 474 kts 336°
2026-04-23 03:51 12.99325 121.55267 27776 ft 474 kts 336°
2026-04-23 03:51 13.02368 121.53928 27448 ft 475 kts 336°
2026-04-23 03:51 13.05406 121.52591 27033 ft 475 kts 336°
2026-04-23 03:52 13.08458 121.51248 26574 ft 476 kts 336°
2026-04-23 03:52 13.11529 121.49897 26090 ft 476 kts 336°
2026-04-23 03:52 13.14578 121.48560 25599 ft 477 kts 336°
2026-04-23 03:52 13.17671 121.47204 25087 ft 478 kts 336°
2026-04-23 03:53 13.20715 121.45867 24581 ft 479 kts 336°
2026-04-23 03:53 13.23787 121.44514 24063 ft 480 kts 336°
2026-04-23 03:53 13.26890 121.43147 23534 ft 481 kts 336°
2026-04-23 03:53 13.29970 121.41789 22990 ft 482 kts 336°
2026-04-23 03:54 13.33061 121.40425 22445 ft 483 kts 336°
2026-04-23 03:54 13.36157 121.39057 21911 ft 484 kts 336°
2026-04-23 03:54 13.39276 121.37678 21365 ft 483 kts 336°
2026-04-23 03:54 13.42334 121.36326 20820 ft 479 kts 336°
2026-04-23 03:55 13.45393 121.34971 20278 ft 475 kts 336°
2026-04-23 03:55 13.48432 121.33616 19713 ft 472 kts 335°
2026-04-23 03:55 13.51441 121.32270 19183 ft 468 kts 335°
2026-04-23 03:55 13.54278 121.30637 18599 ft 464 kts 323°
2026-04-23 03:56 13.56652 121.28416 18037 ft 460 kts 312°
2026-04-23 03:56 13.58753 121.25984 17508 ft 457 kts 310°
2026-04-23 03:56 13.60841 121.23510 16975 ft 454 kts 310°
2026-04-23 03:56 13.62908 121.21057 16404 ft 451 kts 310°
2026-04-23 03:57 13.64959 121.18636 15871 ft 448 kts 310°
2026-04-23 03:57 13.67008 121.16226 15343 ft 445 kts 311°
2026-04-23 03:57 13.69047 121.13835 14791 ft 443 kts 311°
2026-04-23 03:57 13.71048 121.11492 14252 ft 440 kts 311°
2026-04-23 03:58 13.73086 121.09107 13730 ft 433 kts 311°
2026-04-23 03:58 13.75118 121.06879 13239 ft 423 kts 319°
2026-04-23 03:58 13.77601 121.05398 12786 ft 410 kts 340°
2026-04-23 03:58 13.80277 121.04517 12181 ft 395 kts 344°
2026-04-23 03:59 13.82844 121.03743 11430 ft 380 kts 345°
2026-04-23 03:59 13.85322 121.02978 10954 ft 359 kts 344°
2026-04-23 03:59 13.87669 121.02224 10512 ft 340 kts 343°
2026-04-23 03:59 13.89869 121.01498 10117 ft 325 kts 343°
2026-04-23 04:00 13.91937 121.00800 10048 ft 298 kts 343°
2026-04-23 04:00 13.93891 121.00135 9994 ft 291 kts 343°
2026-04-23 04:00 13.95833 120.99471 9672 ft 291 kts 343°
2026-04-23 04:00 13.97749 120.98814 9352 ft 290 kts 343°
2026-04-23 04:01 13.99665 120.98154 9012 ft 288 kts 343°
2026-04-23 04:01 14.01573 120.97496 8668 ft 287 kts 343°
2026-04-23 04:01 14.03473 120.96841 8356 ft 285 kts 343°
2026-04-23 04:01 14.05340 120.96195 8032 ft 283 kts 343°
2026-04-23 04:02 14.07226 120.95543 7714 ft 282 kts 343°
2026-04-23 04:02 14.09077 120.94903 7397 ft 280 kts 343°
2026-04-23 04:02 14.10927 120.94264 7097 ft 278 kts 343°
2026-04-23 04:02 14.12759 120.93634 6791 ft 276 kts 343°
2026-04-23 04:03 14.14583 120.93005 6490 ft 274 kts 343°
2026-04-23 04:03 14.16375 120.92387 6177 ft 272 kts 343°
2026-04-23 04:03 14.18187 120.91760 5864 ft 270 kts 343°
2026-04-23 04:03 14.19968 120.91143 5567 ft 269 kts 343°
2026-04-23 04:04 14.21722 120.90535 5358 ft 258 kts 343°
2026-04-23 04:04 14.23383 120.89957 5331 ft 243 kts 343°
2026-04-23 04:04 14.24948 120.89415 5272 ft 232 kts 343°
2026-04-23 04:04 14.26490 120.88880 5230 ft 233 kts 342°
2026-04-23 04:05 14.28001 120.88247 4975 ft 234 kts 335°
2026-04-23 04:05 14.29461 120.87448 4718 ft 232 kts 333°
2026-04-23 04:05 14.30867 120.86636 4471 ft 230 kts 332°
2026-04-23 04:05 14.32261 120.85824 4217 ft 226 kts 332°
2026-04-23 04:06 14.33610 120.85038 4036 ft 216 kts 332°
2026-04-23 04:06 14.34872 120.84304 3803 ft 206 kts 332°
2026-04-23 04:06 14.36118 120.83581 3548 ft 198 kts 332°
2026-04-23 04:06 14.37292 120.82900 3325 ft 189 kts 333°
2026-04-23 04:07 14.38497 120.82478 3082 ft 179 kts 360°
2026-04-23 04:07 14.39649 120.82748 2947 ft 160 kts 35°
2026-04-23 04:07 14.40440 120.83498 2952 ft 152 kts 53°
2026-04-23 04:07 14.41062 120.84393 2953 ft 152 kts 59°
2026-04-23 04:08 14.41623 120.85322 2956 ft 152 kts 61°
2026-04-23 04:08 14.42167 120.86268 2867 ft 152 kts 62°
2026-04-23 04:08 14.42693 120.87205 2692 ft 152 kts 62°
2026-04-23 04:08 14.43220 120.88156 2508 ft 152 kts 62°
2026-04-23 04:09 14.43749 120.89114 2317 ft 152 kts 62°
2026-04-23 04:09 14.44260 120.90038 2140 ft 149 kts 62°
2026-04-23 04:09 14.44770 120.90962 1947 ft 148 kts 62°
2026-04-23 04:09 14.45280 120.91885 1758 ft 148 kts 62°
2026-04-23 04:10 14.45795 120.92815 1572 ft 147 kts 62°
2026-04-23 04:10 14.46302 120.93731 1394 ft 148 kts 63°
2026-04-23 04:10 14.46813 120.94650 1207 ft 147 kts 63°
2026-04-23 04:10 14.47325 120.95576 1027 ft 149 kts 62°
2026-04-23 04:11 14.47840 120.96503 847 ft 148 kts 62°
2026-04-23 04:11 14.48357 120.97435 647 ft 148 kts 62°
2026-04-23 04:11 14.48863 120.98368 444 ft 150 kts 62°
2026-04-23 04:11 14.49380 120.99309 295 ft 148 kts 61°
2026-04-23 04:12 14.49895 121.00208 114 ft 144 kts 60°
2026-04-23 04:12 14.50362 121.01054 82 ft 122 kts 61°
2026-04-23 04:12 14.50697 121.01665 81 ft 71 kts 62°
2026-04-23 04:12 14.50880 121.01987 81 ft 38 kts 60°
2026-04-23 04:13 14.50986 121.02159 81 ft 24 kts 45°
2026-04-23 04:13 14.51103 121.02271 81 ft 19 kts 43°
2026-04-23 04:13 14.51175 121.02300 81 ft 9 kts 329°
2026-04-23 04:13 14.51177 121.02233 81 ft 11 kts 240°
2026-04-23 04:14 14.51137 121.02161 81 ft 12 kts 240°
2026-04-23 04:14 14.51093 121.02081 81 ft 13 kts 239°
2026-04-23 04:14 14.51067 121.01994 81 ft 13 kts 299°
2026-04-23 04:14 14.51135 121.01924 81 ft 14 kts 316°
2026-04-23 04:15 14.51205 121.01849 81 ft 14 kts 314°
2026-04-23 04:15 14.51280 121.01773 81 ft 15 kts 315°
2026-04-23 04:15 14.51437 121.01609 81 ft 16 kts 316°
2026-04-23 04:16 14.51488 121.01558 81 ft 4 kts 316°
2026-04-23 04:16 14.51516 121.01564 81 ft 5 kts 43°
2026-04-23 04:16 14.51548 121.01595 81 ft 6 kts 45°
2026-04-23 04:16 14.51566 121.01613 81 ft 2 kts 44°
2026-04-23 04:17 14.51569 121.01617 81 ft 0 kts 44°